Regional Weather Roundup
Issued by NWS

Home | Current Version | Previous Version | Text Only | Print | Product List | Glossary On
Versions: 1 2 3 4 5 6 7 8 9 10 11 12 13 14 15 16 17 18 19 20 21 22 23 24 25 26 27 28 29 30 31 32 33 34 35 36 37 38 39 40 41 42 43 44 45 46 47
000
ASUS46 KSEW 281510
RWRWA

WASHINGTON REGIONAL WEATHER ROUNDUP
NATIONAL WEATHER SERVICE SEATTLE WA
800 AM PDT FRI AUG 28 2015

NOTE:"FAIR" INDICATES FEW OR NO CLOUDS BELOW 12,000 FEET WITH NO
SIGNIFICANT WEATHER AND/OR OBSTRUCTIONS TO VISIBILITY.

WAZ505-507>509-281600-
SEATTLE, TACOMA, EVERETT, AND VICINITY

CITY           SKY/WX    TMP DP  RH WIND       PRES   REMARKS
EVERETT        CLOUDY    61  55  81 SE10      29.99R
BOEING FIELD   CLOUDY    65  56  72 S3        29.99R
RENTON         CLOUDY    63  56  78 CALM      29.99R
SEATAC AIRPORT CLOUDY    62  56  80 S6        30.00S
JBLM-MCCHORD   LGT RAIN  61  57  88 CALM      29.98F
PUYALLUP       CLOUDY    59  59 100 CALM      29.99S
BREMERTON      CLOUDY    59  57  94 S7        30.03S
JBLM-FT LEWIS  CLOUDY    60  58  90 SE2       29.98S
TACOMA NARROWS CLOUDY    60  57  89 S3        30.00S
$$

WAZ001-503-506-510-514-515-281600-
NORTH INTERIOR

CITY           SKY/WX    TMP DP  RH WIND       PRES   REMARKS
BELLINGHAM     CLOUDY    61  57  87 VRB7      29.95R
FRIDAY HARBOR  CLOUDY    56  55  97 SE5       29.96S
EASTSOUND      CLOUDY    59  57  94 S8        29.93S
PORT ANGELES   CLOUDY    58  56  93 CALM      29.95R
PORT TOWNSEND  CLOUDY    59  59 100 SE7       29.94S
NAS WHIDBEY    LGT RAIN  59  57  93 SE9       29.98F
ARLINGTON      CLOUDY    63  54  72 SE10      29.96F
BURLINGTON     CLOUDY    59  57  94 CALM      29.96S
$$

WAZ020-022-039-040-504-511-512-281600-
SOUTHWEST INTERIOR

CITY           SKY/WX    TMP DP  RH WIND       PRES   REMARKS
SHELTON        CLOUDY    59  57  93 CALM      29.97F
OLYMPIA        CLOUDY    59  57  93 SW5       29.99S
CHEHALIS       CLOUDY    61  59  94 SW3       29.99F
KELSO          NOT AVBL
VANCOUVER      CLOUDY    64  54  69 NW3       29.99F
SCAPPOOSE, OR  CLOUDY    62  56  80 N3        29.99S
PORTLAND, OR   CLOUDY    65  54  67 W3        30.00F
$$

WAZ021-516-517-281600-
WASHINGTON COAST

CITY           SKY/WX    TMP DP  RH WIND       PRES   REMARKS
FORKS          LGT RAIN  60  59  96 VRB6      29.94S FOG
HOQUIAM        CLOUDY    61  59  93 E8        29.97F
ASTORIA, OR    CLOUDY    61  60  97 E3        29.97F
$$

WAZ019-023-024-040-518-519-281600-
CASCADE MOUNTAINS AND COLUMBIA GORGE

CITY           SKY/WX    TMP DP  RH WIND       PRES   REMARKS
TROUTDALE, OR  CLOUDY    67  54  63 W3        30.00S
THE DALLES, OR CLOUDY    72  49  44 W6        29.95S
$$

WAZ026-027-041>044-520-521-281600-
EAST SLOPES

CITY           SKY/WX    TMP DP  RH WIND       PRES   REMARKS
OMAK           CLOUDY    69  41  36 CALM      29.90S HAZE
WENATCHEE      CLOUDY    73  44  35 VRB3      29.91S
ELLENSBURG     LGT RAIN  66  51  58 NW7       29.97R
YAKIMA         CLOUDY    68  51  54 CALM      29.95R
$$

WAZ028-034-035-281600-
COLUMBIA BASIN

CITY           SKY/WX    TMP DP  RH WIND       PRES   REMARKS
EPHRATA        CLOUDY    69  46  43 CALM      29.92R
MOSES LAKE     CLOUDY    66  51  58 CALM      29.92R
PASCO          CLOUDY    72  52  49 S5        29.92R
HERMISTON, OR  CLOUDY    75  46  35 SW10      29.94R
$$

WAZ036>038-281600-
NORTHEAST WASHINGTON

CITY           SKY/WX    TMP DP  RH WIND       PRES   REMARKS
SPOKANE GEIGER CLOUDY    67  42  40 S5        29.96S
SPOKANE FELTS  CLOUDY    65  49  56 NE3       29.95F
FAIRCHILD AFB  CLOUDY    66  41  39 SE5       29.96R
COEURDALENE,ID PTSUNNY   66  48  52 CALM      29.96F
DEER PARK      CLOUDY    66  43  43 NE3       29.96S
$$

WAZ029>033-281600-
SOUTHEAST WASHINGTON

CITY           SKY/WX    TMP DP  RH WIND       PRES   REMARKS
PULLMAN        CLOUDY    65  43  44 SW6       30.01R HAZE
LEWISTON, ID   CLOUDY    67  43  41 SE5       29.95R
WALLA WALLA    PTSUNNY   75  43  31 S10       29.97R
PENDLETON, OR  PTSUNNY   71  42  35 VRB3      29.99R
$$



USA.gov is the U.S. government's official web portal to all federal, state and local government web resources and services.